Zurück zum Katalog

DELTA 1 DEB

AktivSSO
NORAD 26839·DEBRIS·🇺🇸 United States

Gestartet Jun 12, 1975 von Vandenberg Space Force Base

Loading…

Nächste Überflüge (nächste 24 Stunden)

TLE

AktuellSource: Space-Track

Epoche: Sep 13, 2026, 13:31 UTC

1 26839U 75052KT  26256.56345468  .00000132  00000-0  36236-3 0  9998
2 26839 100.1249 182.4146 0084166  39.6772 136.1424 13.31117700678211

Verfolge DELTA 1 DEB in Echtzeit mit AllMySat

Download on the App Store